Weather History for Brisbane, QU

Change the Weather History Date:

Tuesday, September 3, 2013

  Actual Average Record
Temperature  
Mean Temperature 65 °F -  
Max Temperature 71 °F 75 °F 80 °F (1997)
Min Temperature 59 °F 56 °F 42 °F (2003)
Growing Degree Days 15 (Base 50)    
Moisture  
Dew Point 51 °F    
Average Humidity 59    
Maximum Humidity 88    
Minimum Humidity 31    
Precipitation  
Precipitation 0.00 in 0.05 in - ()
Sea Level Pressure  
Sea Level Pressure 30.40 in    
Wind  
Wind Speed 8 mph ()    
Max Wind Speed 16 mph    
Max Gust Speed -    
Visibility 7.0 miles    
Events      
Averages and records for this station are not official NWS values.
T = Trace of Precipitation, MM = Missing Value Source: Averaged Metar Reports

Daily Weather History Graph

Daily Weather History Graph

Search for Another Location

Airport:

Trip Planner

Search our weather history database for the weather conditions in past years. The results will help you decide how hot, cold, wet, or windy it might be!

Date:

Astronomy

Sep. 03, 2013 Rise Set
Actual Time 5:59 AM AEST 5:35 PM AEST
Civil Twilight 5:35 AM AEST 5:58 PM AEST
Nautical Twilight 5:08 AM AEST 6:25 PM AEST
Astronomical Twilight 4:41 AM AEST 6:52 PM AEST
Moon 4:07 AM AEST (9/3) 3:35 PM AEST (9/3)
Length of Visible Light 12h 22m
Length of Day
11h 35m
Waning Crescent, 6% of the Moon is Illuminated
Sep 3
Waning Crescent
Sep 5
New
Sep 13
First Quarter
Sep 19
Full
Sep 27
Last Quarter

Hourly Weather History & Observations

Time (AEST) Temp. Dew Point Humidity Pressure Visibility Wind Dir Wind Speed Gust Speed Precip Events Conditions
12:00 AM 64 °F 56 °F 68% 30.38 in 9 mi SSE 8.1 mph - -   Mostly Cloudy
12:00 AM 64.4 °F 55.4 °F 73% 30.36 in 6.2 mi SSE 8.1 mph - N/A   Mostly Cloudy
12:30 AM 62.6 °F 55.4 °F 77% 30.36 in 6.2 mi South 6.9 mph - N/A   Light Drizzle
1:00 AM 63 °F 56 °F 70% 30.38 in - SSE 5.8 mph - -  
1:00 AM 62.6 °F 55.4 °F 77% 30.36 in 6.2 mi SSE 5.8 mph - N/A   Scattered Clouds
1:30 AM 62.6 °F 55.4 °F 77% 30.36 in 6.2 mi South 5.8 mph - N/A   Mostly Cloudy
2:00 AM 62.6 °F 55.4 °F 77% 30.36 in 6.2 mi South 6.9 mph - N/A   Mostly Cloudy
2:30 AM 62.6 °F 55.4 °F 77% 30.33 in 6.2 mi South 8.1 mph - N/A   Mostly Cloudy
3:00 AM 63 °F 56 °F 70% 30.35 in 16 mi South 9.2 mph - -   Mostly Cloudy
3:00 AM 62.6 °F 55.4 °F 77% 30.33 in 6.2 mi South 9.2 mph - N/A   Mostly Cloudy
3:30 AM 62.6 °F 55.4 °F 77% 30.36 in 6.2 mi South 9.2 mph - N/A   Mostly Cloudy
4:00 AM 62 °F 55 °F 71% 30.36 in - SSW 6.9 mph - -  
4:00 AM 60.8 °F 55.4 °F 82% 30.36 in 6.2 mi SSW 6.9 mph - N/A   Scattered Clouds
4:30 AM 60.8 °F 55.4 °F 82% 30.36 in - SSW 6.9 mph - N/A   Clear
5:00 AM 59.0 °F 55.4 °F 88% 30.36 in 6.2 mi South 5.8 mph - N/A   Mostly Cloudy
5:30 AM 62.6 °F 53.6 °F 72% 30.36 in 6.2 mi SSW 8.1 mph - N/A   Light Drizzle
6:00 AM 60.8 °F 53.6 °F 77% 30.39 in 6.2 mi SSW 9.2 mph - N/A   Mostly Cloudy
6:30 AM 60.8 °F 55.4 °F 82% 30.39 in 6.2 mi SSW 8.1 mph - N/A   Mostly Cloudy
7:00 AM 62.6 °F 53.6 °F 72% 30.39 in 6.2 mi South 8.1 mph - N/A   Mostly Cloudy
7:30 AM 62.6 °F 53.6 °F 72% 30.42 in 6.2 mi South 9.2 mph - N/A   Mostly Cloudy
8:00 AM 62.6 °F 55.4 °F 77% 30.42 in 6.2 mi SSE 6.9 mph - N/A   Scattered Clouds
8:30 AM 66.2 °F 57.2 °F 73% 30.42 in 6.2 mi South 8.1 mph - N/A   Scattered Clouds
9:00 AM 69 °F 52 °F 44% 30.44 in 16 mi ESE 11.5 mph - -   Mostly Cloudy
9:00 AM 68.0 °F 51.8 °F 56% 30.42 in 6.2 mi ESE 11.5 mph - N/A   Mostly Cloudy
9:30 AM 66.2 °F 55.4 °F 68% 30.45 in 6.2 mi SSW 10.4 mph - N/A   Mostly Cloudy
10:00 AM 70 °F 54 °F 46% 30.45 in - SSE 6.9 mph - -  
10:00 AM 69.8 °F 53.6 °F 56% 30.42 in 6.2 mi SSE 6.9 mph - N/A   Mostly Cloudy
10:30 AM 71.6 °F 53.6 °F 53% 30.42 in 6.2 mi ESE 13.8 mph - N/A   Mostly Cloudy
11:00 AM 71.6 °F 51.8 °F 50% 30.42 in 6.2 mi ESE 13.8 mph - N/A   Scattered Clouds
11:30 AM 71.6 °F 50.0 °F 46% 30.42 in 6.2 mi ESE 13.8 mph - N/A   Scattered Clouds
12:00 PM 69.8 °F 50.0 °F 49% 30.39 in 6.2 mi ESE 15.0 mph - N/A   Scattered Clouds
12:30 PM 71.6 °F 48.2 °F 43% 30.39 in 6.2 mi ESE 16.1 mph - N/A   Scattered Clouds
1:00 PM 71 °F 47 °F 31% 30.40 in - ESE 15.0 mph - -  
1:00 PM 71.6 °F 46.4 °F 41% 30.39 in 6.2 mi ESE 15.0 mph - N/A   Scattered Clouds
1:30 PM 71.6 °F 50.0 °F 46% 30.39 in 6.2 mi ESE 15.0 mph - N/A   Scattered Clouds
2:00 PM 69.8 °F 50.0 °F 49% 30.36 in - ESE 15.0 mph - N/A   Clear
2:30 PM 71.6 °F 50.0 °F 46% 30.36 in 6.2 mi ESE 15.0 mph - N/A   Scattered Clouds
3:00 PM 69.8 °F 50.0 °F 49% 30.36 in 6.2 mi ESE 16.1 mph - N/A   Scattered Clouds
3:30 PM 69.8 °F 46.4 °F 43% 30.36 in 6.2 mi SE 13.8 mph - N/A   Scattered Clouds
4:00 PM 69.8 °F 44.6 °F 40% 30.39 in 6.2 mi ESE 11.5 mph - N/A   Partly Cloudy
4:30 PM 68.0 °F 44.6 °F 43% 30.39 in 6.2 mi ESE 12.7 mph - N/A   Partly Cloudy
5:00 PM 68.0 °F 46.4 °F 46% 30.39 in 6.2 mi SE 11.5 mph - N/A   Partly Cloudy
5:30 PM 68.0 °F 46.4 °F 46% 30.39 in 6.2 mi SE 10.4 mph - N/A   Partly Cloudy
6:00 PM 66 °F 47 °F 39% 30.42 in 16 mi SSE 9.2 mph - -   Partly Cloudy
6:00 PM 66.2 °F 46.4 °F 49% 30.42 in 6.2 mi SSE 9.2 mph - N/A   Partly Cloudy
6:30 PM 64.4 °F 46.4 °F 52% 30.42 in 6.2 mi South 9.2 mph - N/A   Partly Cloudy
7:00 PM 64 °F 45 °F 39% 30.44 in - South 8.1 mph - -  
7:00 PM 64.4 °F 44.6 °F 49% 30.42 in 6.2 mi South 8.1 mph - N/A   Scattered Clouds
7:30 PM 64.4 °F 46.4 °F 52% 30.42 in 6.2 mi South 8.1 mph - N/A   Mostly Cloudy
8:00 PM 64.4 °F 46.4 °F 52% 30.45 in 6.2 mi South 10.4 mph - N/A   Mostly Cloudy
8:30 PM 64.4 °F 46.4 °F 52% 30.45 in 6.2 mi South 9.2 mph - N/A   Mostly Cloudy
9:00 PM 63 °F 46 °F 42% 30.46 in 16 mi South 9.2 mph - -   Partly Cloudy
9:00 PM 62.6 °F 46.4 °F 55% 30.45 in 6.2 mi South 9.2 mph - N/A   Partly Cloudy
9:30 PM 62.6 °F 46.4 °F 55% 30.45 in 6.2 mi SSE 8.1 mph - N/A   Partly Cloudy
10:00 PM 62 °F 47 °F 47% 30.46 in - South 9.2 mph - -  
10:00 PM 62.6 °F 46.4 °F 55% 30.45 in 6.2 mi South 9.2 mph - N/A   Mostly Cloudy
10:30 PM 62.6 °F 46.4 °F 55% 30.45 in 6.2 mi South 9.2 mph - N/A   Mostly Cloudy
11:00 PM 60.8 °F 48.2 °F 63% 30.45 in 6.2 mi South 8.1 mph - N/A   Mostly Cloudy
11:30 PM 60.8 °F 48.2 °F 63% 30.45 in 6.2 mi South 5.8 mph - N/A   Scattered Clouds